Overview Statistics Trail Chart Weather Telemetry Raw packets
 

This is the latest recevied weather packets stored in our database for station/object OK1VOF-13. If no packets are shown the sender has not sent any weather packets the latest 10 day(s).

<< 4 5 6 7 8 9 10 >>
Time Temp. Humidity Pressure Rain* Wind** Luminosity Snow
1788540920 31.67° C 50% 1013.2 hPa 0 mm - - -
1788540621 31.67° C 50% 1013.1 hPa 0 mm - - -
1788540322 32.22° C 50% 1013.1 hPa 0 mm - - -
1788540023 32.22° C 50% 1013.2 hPa 0 mm - - -
1788539419 32.22° C 50% 1013.2 hPa 0 mm - - -
1788538821 32.22° C 51% 1013.3 hPa 0 mm - - -
1788538235 31.11° C 52% 1013.5 hPa 0 mm - - -
1788537932 31.11° C 52% 1013.6 hPa 0 mm - - -
1788536431 30.56° C 53% 1013.7 hPa 0 mm - - -
1788535840 30° C 53% 1014 hPa 0 mm - - -
1788535535 29.44° C 54% 1014 hPa 0 mm - - -
1788535243 29.44° C 54% 1014 hPa 0 mm - - -
1788534645 28.89° C 54% 1014.3 hPa 0 mm - - -
1788534047 28.33° C 54% 1014.4 hPa 0 mm - - -
1788533753 28.33° C 55% 1014.5 hPa 0 mm - - -
1788533151 28.33° C 55% 1014.6 hPa 0 mm - - -
1788532852 28.33° C 55% 1014.8 hPa 0 mm - - -
1788532553 28.33° C 56% 1014.9 hPa 0 mm - - -
1788532248 27.78° C 56% 1014.9 hPa 0 mm - - -
1788531949 27.78° C 56% 1014.8 hPa 0 mm - - -
1788531657 27.22° C 57% 1014.9 hPa 0 mm - - -
1788531053 26.67° C 57% 1015.2 hPa 0 mm - - -
1788530754 26.67° C 57% 1015.2 hPa 0 mm - - -
1788529864 26.11° C 58% 1015.4 hPa 0 mm - - -
1788528363 25.56° C 58% 1016 hPa 0 mm - - -

* Rain latest hour (hover to see other rain measurements)
** Current wind speed in m/s (hover to see current wind gust speed)